#timestamp,LO_Frequency,Hit 
1502028015.2,286047006.4,N
1502028035.9,286047006.1,N
1502028055.7,286047006.4,N
1502028075.6,286047009.1,N
1502028095.4,286047006.1,N
1502028115.2,286047009.1,N
1502028135.0,286047008.7,N
1502028136.0,286047008.7,N
1502028155.8,286047008.4,N
1502028175.6,286047006.2,N
1502028195.4,286047006.7,N
1502028215.3,286047006.7,N
1502028235.1,286047007.2,N
1502028255.8,286047007.5,N
1502028275.7,286047007.4,N
1502028295.5,286047006.3,N
1502028315.3,286047006.6,N
1502028335.2,286047007.5,N
1502028355.9,286047007.3,N
1502028375.7,286047006.2,N
1502028395.6,286047007.8,N
1502028415.4,286047010.1,N
1502028435.2,286047010.7,N
1502028455.0,286047010.5,N
1502028456.0,286047010.5,N
1502028475.8,286047008.2,N
1502028495.6,286047010.3,N
1502028515.4,286047011.5,N
1502028535.3,286047010.9,N
1502028555.1,286047012.0,N
1502028575.8,286047009.5,N
1502028595.7,286047011.1,N
1502028615.5,286047010.2,N
1502028635.3,286047012.1,N
1502028655.2,286047012.0,N
1502028675.9,286047010.4,N
1502028695.7,286047008.6,N
1502028715.5,286047007.8,N
1502028735.3,286047010.2,N
1502028755.2,286047010.4,N
1502028775.9,286047007.9,N
1502028795.7,286047008.8,N
1502028815.6,286047010.0,N
1502028835.4,286047009.8,N
1502028855.2,286047009.3,N
1502028875.0,286047011.9,N
1502028875.9,286047011.9,N
1502028895.8,286047011.1,N
1502028915.6,286047012.6,N
1502028935.4,286047013.5,N
1502028955.3,286047010.1,N
1502028975.1,286047009.5,N
1502028995.8,286047011.8,N
1502029015.7,286047013.7,N
1502029035.5,286047011.3,N
1502029055.3,286047011.5,N
1502029075.2,286047009.7,N
1502029095.9,286047013.8,N
1502029115.7,286047012.8,N
1502029135.6,286047013.2,N
1502029155.4,286047015.4,N
1502029175.2,286047018.8,N
1502029195.0,286047018.7,N
1502029196.0,286047018.7,N
1502029215.8,286047016.4,N
1502029235.6,286047015.0,N
1502029255.4,286047015.6,N
1502029275.3,286047013.5,N
1502029295.1,286047013.9,N
1502029315.8,286047012.8,N
1502029335.7,286047013.4,N
1502029355.5,286047012.7,N
1502029375.3,286047012.7,N
1502029395.2,286047012.5,N
1502029415.9,286047012.8,N
1502029435.7,286047014.5,N
1502029455.6,286047015.9,N
1502029475.4,286047017.0,N
1502029495.2,286047017.0,N
1502029515.0,286047017.1,N
1502029516.0,286047017.1,N
1502029535.8,286047018.6,N
1502029555.6,286047018.6,N
1502029575.4,286047019.9,N
1502029595.3,286047021.7,N
1502029615.1,286047021.8,N
1502029635.8,286047020.0,N
1502029655.7,286047021.9,N
1502029675.5,286047021.1,N
1502029695.3,286047019.8,N
1502029715.2,286047016.7,N
1502029735.9,286047015.7,N
1502029755.7,286047019.7,N
1502029775.6,286047019.8,N
1502029795.4,286047019.3,N
1502029815.2,286047021.1,N
1502029835.0,286047021.1,N
1502029835.9,286047021.1,N
1502029855.8,286047019.4,N
1502029875.6,286047019.2,N
1502029895.4,286047018.6,N
1502029915.3,286047018.5,N
1502029935.1,286047019.1,N
1502029955.8,286047020.7,N
1502029975.7,286047020.8,N
1502029995.5,286047022.5,N
1502030015.3,286047022.4,N
1502030035.2,286047024.5,N
1502030055.9,286047023.8,N
1502030075.7,286047022.7,N
1502030095.5,286047022.3,N
1502030115.4,286047024.8,N
1502030135.2,286047022.9,N
1502030155.0,286047024.8,N
1502030155.9,286047024.8,N
1502030175.8,286047022.2,N
1502030195.6,286047023.3,N
1502030215.4,286047020.6,N
1502030235.3,286047023.6,N
1502030255.1,286047020.6,N
1502030256.0,286047020.6,N
1502030275.8,286047023.2,N
1502030295.7,286047021.7,N
1502030315.5,286047017.3,N
1502030335.3,286047019.1,N
1502030355.2,286047023.3,N
1502030375.9,286047021.8,N
1502030395.7,286047022.1,N
1502030415.8,286047022.1,N
1502030435.6,286047022.1,N
1502030455.0,286047024.2,N
1502030455.9,286047024.2,N
1502030475.7,286047025.8,N
1502030495.6,286047025.6,N
1502030515.4,286047027.5,N
1502030535.2,286047029.2,N
1502030555.1,286047030.3,N
1502030556.0,286047030.3,N
1502030575.8,286047030.8,N
1502030595.6,286047031.4,N
1502030615.5,286047031.4,N
1502030635.3,286047029.2,N
1502030655.1,286047026.8,N
1502030675.9,286047024.7,N
1502030695.7,286047025.0,N
1502030715.5,286047022.1,N
1502030735.3,286047022.7,N
1502030755.2,286047022.8,N
1502030775.0,286047024.4,N
1502030775.9,286047024.4,N
1502030795.7,286047023.3,N
1502030815.6,286047024.8,N
1502030835.4,286047021.0,N
1502030855.2,286047021.7,N
1502030875.1,286047022.6,N
1502030876.0,286047022.6,N
1502030895.8,286047022.5,N
1502030915.6,286047020.8,N
1502030935.5,286047021.3,N
1502030955.3,286047021.1,N
1502030975.1,286047025.2,N
1502030995.8,286047023.8,N
1502031015.7,286047025.2,N
1502031035.5,286047026.1,N
1502031055.3,286047027.1,N
1502031075.2,286047024.1,N
1502031095.9,286047025.2,N
1502031115.7,286047022.9,N
1502031135.6,286047020.8,N
1502031155.4,286047021.7,N
1502031175.2,286047020.7,N
1502031195.1,286047023.3,N
1502031196.0,286047023.3,N
1502031215.8,286047023.6,N
1502031235.6,286047019.4,N
1502031255.5,286047018.4,N
1502031275.3,286047017.3,N
1502031295.1,286047019.1,N
1502031315.8,286047020.9,N
1502031335.7,286047023.6,N
1502031355.5,286047020.9,N
1502031375.3,286047021.5,N
1502031395.2,286047020.1,N
1502031415.9,286047019.3,N
1502031435.7,286047021.6,N
1502031455.6,286047020.6,N
1502031475.4,286047019.6,N
1502031495.2,286047021.1,N
1502031515.1,286047023.2,N
1502031516.0,286047023.2,N
1502031535.8,286047020.8,N
1502031555.6,286047023.5,N
1502031575.4,286047023.3,N
1502031595.3,286047021.1,N
